Location: Knowlton
(51.2333°N, 1.2667°E)
Time: 15:45:39
(UTC+00:00)

Tiangong - Visible Passes

Search period start: 23 September 2021 00:00
Search period end: 03 October 2021 00:00
Orbit: 382 x 385 km, 41.5° (Epoch: 22 September)

Date Brightness Start Highest point End Pass type
(mag) Time Alt. Az. Time Alt. Az. Time Alt. Az.
28 Sep 3.7 05:13:03 10° SSW 05:14:22 12° SSE 05:15:41 10° SE visible
30 Sep 3.5 04:49:24 10° SSW 04:51:07 14° S 04:52:50 10° SE visible
01 Oct 3.7 03:51:59 12° SSE 03:51:59 12° SSE 03:52:48 10° SE visible
02 Oct 3.3 04:27:10 14° SSW 04:27:52 14° S 04:29:42 10° SE visible
